Hit Tracker is now ESPN Home Run Tracker! Hit Tracker founder Greg Rybarczyk is now collaborating with the ESPN Stats & Information Group to continue tracking all MLB home runs, and helping baseball fans know "How Far It Really Went!™" Please credit any information on this site to ESPN Stats & Information Group. For more information and analysis on home runs, please contact founder Greg Rybarczyk. E-Mail ESPN Home Run Tracker
Main Page | Ballparks | Park Overlays | Glossary | Highlight Homers | Feedback | Bio | 3 Types of HR's | AAA Home Run Derby Last Updated: May 24, 2016, 11:25 pm PST
If you want to know "How Far It Really Went!", then you've come to the right place! Welcome to the ESPN Home Run Tracker, where you can find accurate, transparently verifiable distances for every home run hit in MLB games. Please also check out the ESPN MLB Scoreboard throughout the 2016 season! Contact us at grybar@hittrackeronline.com.
Season:
Ballpark detail for Coors Field
Ballpark # of Home Runs HR per game Avg.
True
Distance
Avg.
Speed
Off
Bat
Avg.
Std.
Dist.
Coors Field 48 2.67 417.9 105.7 407.6

Scatter Plot of Home Runs Coors Field
 Overlay Ballpark:
Without range rings   With range rings

2016 Season Home Runs for Coors Field
Click headers to sort
Date Video Path Hitter Hitter
Team
Pitcher Pitcher
Team
 ^
INN Ballpark Type/
Luck
True
Dist.
Speed
Off
Bat
Elev.
Angle
Horiz.
Angle
Apex Impact Due To: Std.
Dist.
#
Parks
Wind Temp. Alt.
04/13/16 Video View Arenado, Nolan COL Peavy, Jake SF 3 Coors Field PL 394 109.3 22.3 112.6 58 0 -1 4 390 30
04/13/16 Video View Arenado, Nolan COL Osich, Josh SF 8 Coors Field ND 406 105.6 32.2 118.7 107 -12 -2 17 399 30
04/14/16 Video View Parra, Gerardo COL Cain, Matt SF 5 Coors Field JE 397 107.1 23.7 67.4 60 2 0 5 390 29
04/08/16 Video View Story, Trevor COL Rea, Colin SD 4 Coors Field ND 409 103.7 36.1 120.6 118 11 0 24 377 30
04/08/16 Video View Story, Trevor COL Buchter, Ryan SD 9 Coors Field PL 397 102.5 27.6 111.7 77 1 -1 8 388 30
04/10/16 Video View Gonzalez, Carlos COL Shields, James SD 1 Coors Field JE 368 99.8 27.1 119.1 66 1 -1 7 360 13
04/10/16 Video View Arenado, Nolan COL Shields, James SD 1 Coors Field ND 471 110.8 28.0 100.1 105 3 0 15 454 30
04/10/16 Video View Raburn, Ryan COL Shields, James SD 7 Coors Field ND 413 108.6 27.2 123.3 75 2 0 9 401 30
04/10/16 Video View Story, Trevor COL Maurer, Brandon SD 8 Coors Field PL 429 106.0 28.7 105.1 99 -7 1 13 421 30
04/10/16 Video View Gonzalez, Carlos COL Maurer, Brandon SD 8 Coors Field ND 420 108.9 27.9 61.6 85 -5 0 11 412 30
04/26/16 Video View Arenado, Nolan COL Cole, Gerrit PIT 4 Coors Field JE 427 106.5 23.3 95.3 77 0 -2 3 424 26
04/27/16 Video View Story, Trevor COL Niese, Jonathon PIT 4 Coors Field JE 424 103.7 26.7 89.6 100 -10 -3 8 424 27
04/27/16 Video View Arenado, Nolan COL Niese, Jonathon PIT 4 Coors Field PL 394 103.6 28.3 113.2 87 -9 -3 10 394 30
04/27/16 Video View Reynolds, Mark COL Feliz, Neftali PIT 7 Coors Field ND 446 114.9 23.4 106.5 82 -10 -3 7 446 30
04/27/16 Video View Parra, Gerardo COL Watson, Tony PIT 8 Coors Field JE 427 106.3 23.1 94.2 80 -1 -1 3 424 27
05/15/16 Video View Raburn, Ryan COL Henderson, Jim NYM 7 Coors Field PL 412 101.2 29.4 78.8 95 0 -1 12 402 26
05/15/16 Video View Gonzalez, Carlos COL deGrom, Jacob NYM 6 Coors Field JE 425 102.6 28.6 96.4 96 0 -1 11 415 27
04/22/16 Video View Arenado, Nolan COL Kazmir, Scott LAD 4 Coors Field ND 435 109.4 28.8 116.8 90 4 0 13 419 30
04/22/16 Video View Raburn, Ryan COL Kazmir, Scott LAD 4 Coors Field JE 390 111.4 21.0 113.6 51 1 0 4 385 24
04/12/16 Video View Pence, Hunter SF Chatwood, Tyler COL 5 Coors Field PL 455 106.6 29.3 98.6 104 11 -3 15 434 30
04/12/16 Video View Brown, Trevor SF Chatwood, Tyler COL 6 Coors Field PL 404 103.9 31.9 112.6 108 -10 -4 17 398 30
04/12/16 Video View Brown, Trevor SF Gurka, Jason COL 8 Coors Field JE 403 104.3 25.2 106.4 73 1 -1 6 397 30
04/13/16 Video View Belt, Brandon SF Castro, Miguel COL 8 Coors Field PL 394 102.5 36.4 75.0 140 -15 -3 27 382 27
04/14/16 Video View Belt, Brandon SF Qualls, Chad COL 8 Coors Field JE 379 96.3 30.3 111.0 80 5 0 11 362 7
04/08/16 Video View Kemp, Matt SD Miller, Justin COL 5 Coors Field ND 457 110.0 26.9 100.5 99 -3 0 12 448 30
04/08/16 Video View Upton Jr., Melvin SD Miller, Justin COL 6 Coors Field ND 434 110.0 29.8 118.6 97 -2 0 15 421 30
04/09/16 Video View Kemp, Matt SD De La Rosa, Jorge COL 3 Coors Field ND 426 108.3 28.9 119.2 87 5 -2 12 411 30
04/09/16 Video View Kemp, Matt SD De La Rosa, Jorge COL 4 Coors Field PL 415 101.6 28.9 79.5 92 1 -1 11 404 28
04/09/16 Video View Spangenberg, Cory SD De La Rosa, Jorge COL 4 Coors Field JE 397 103.2 25.4 73.2 70 1 0 6 392 26
04/09/16 Video View Myers, Wil SD Qualls, Chad COL 9 Coors Field PL 454 109.9 23.3 92.2 78 1 -1 5 449 30
04/22/16 Video View Seager, Corey LAD Gray, Jon COL 1 Coors Field PL 433 102.9 27.7 89.0 90 3 0 10 420 27
04/22/16 Video View Gonzalez, Adrian LAD Gray, Jon COL 1 Coors Field ND 420 105.9 30.1 62.6 92 3 1 14 403 30
04/23/16 Video View Ellis, A.J. LAD Chatwood, Tyler COL 2 Coors Field ND 425 110.5 25.4 115.0 73 2 -1 8 416 30
04/24/16 Video View Pederson, Joc LAD Lyles, Jordan COL 3 Coors Field PL 393 98.4 40.0 71.1 135 30 -1 29 340 0
04/25/16 Video View Joyce, Matt PIT Oberg, Scott COL 7 Coors Field PL 432 106.1 26.6 103.0 82 4 -2 9 421 30
04/26/16 Video View McCutchen, Andrew PIT De La Rosa, Jorge COL 1 Coors Field ND 437 111.3 24.3 105.6 79 -2 -3 7 433 30
04/26/16 Video View Freese, David PIT De La Rosa, Jorge COL 1 Coors Field JE 432 104.3 29.2 84.6 108 -4 -4 13 426 27
04/26/16 Video View McCutchen, Andrew PIT De La Rosa, Jorge COL 2 Coors Field PL 444 106.7 28.7 98.0 108 -2 -5 14 435 30
04/26/16 Video View McCutchen, Andrew PIT Bergman, Christian COL 6 Coors Field JE/L 387 106.2 22.9 70.8 59 0 -2 4 385 24
04/26/16 Video View Marte, Starling PIT Germen, Gonzalez COL 6 Coors Field ND 408 104.2 33.8 115.3 115 2 -8 21 392 30
04/27/16 Video View Polanco, Gregory PIT Miller, Justin COL 7 Coors Field PL 446 108.3 25.0 93.9 98 -8 -3 7 445 30
05/09/16 Video View Segura, Jean ARI Chatwood, Tyler COL 5 Coors Field JE 378 97.6 31.3 63.5 84 4 -2 12 363 25
05/09/16 Video View Lamb, Jake ARI Chatwood, Tyler COL 5 Coors Field ND 439 108.5 28.1 72.9 97 -3 -2 12 430 30
05/10/16 Video View Goldschmidt, Paul ARI Germen, Gonzalez COL 7 Coors Field ND 429 106.2 31.8 110.8 110 4 -6 18 411 30
05/14/16 Video View Walker, Neil NYM Butler, Eddie COL 4 Coors Field PL 426 106.8 25.6 77.3 83 -2 -3 7 422 29
05/15/16 Video View Cespedes, Yoenis NYM Chatwood, Tyler COL 2 Coors Field PL 431 104.9 26.5 82.4 88 0 -2 9 424 29
05/11/16 Video View Blackmon, Charlie COL Ray, Robbie ARI 3 Coors Field JE 399 99.5 30.4 75.7 96 0 -2 13 388 23
05/11/16 Video View Arenado, Nolan COL Clippard, Tyler ARI 8 Coors Field ND 399 106.9 27.3 125.3 72 2 -1 9 390 30


About HitTracker | Contact Us
© 2006-2016 HitTrackerOnline